Flippin, AR

6:12 AM CDT on October 17, 2017 (GMT -0500)
Marion County Regional

Weather History for KFLP - February, 2014

Change the Weather History Date:

Thursday, February 20, 2014

  Actual Average Record
Temperature  
Mean Temperature 58 °F -  
Max Temperature 78 °F 51 °F 78 °F (2014)
Min Temperature 37 °F 32 °F 17 °F (2006)
Degree Days  
Heating Degree Days 8    
Growing Degree Days 8 (Base 50)    
Moisture  
Dew Point 41 °F    
Average Humidity 54    
Maximum Humidity 72    
Minimum Humidity 20    
Precipitation  
Precipitation 0.00 in - - ()
Sea Level Pressure  
Sea Level Pressure 29.67 in    
Wind  
Wind Speed 12 mph (SW)    
Max Wind Speed 38 mph    
Max Gust Speed 51 mph    
Visibility 10 miles    
Events      
Averages and records for this station are not official NWS values.
T = Trace of Precipitation, MM = Missing Value Source: NWS Daily Summary

Daily Weather History Graph

Daily Weather History Graph

Search for Another Location

Airport or City:

Trip Planner

Search our weather history database for the weather conditions in past years. The results will help you decide how hot, cold, wet, or windy it might be!

Date:

Astronomy

Feb. 20, 2014 Rise Set
Actual Time 6:52 AM CST 5:56 PM CST
Civil Twilight 6:26 AM CST 6:22 PM CST
Nautical Twilight 5:56 AM CST 6:52 PM CST
Astronomical Twilight 5:26 AM CST 7:22 PM CST
Moon 11:40 PM CST (2/20) 9:45 AM CST (2/20)
Length of Visible Light 11h 56m
Length of Day
11h 04m
Waning Gibbous, 70% of the Moon is Illuminated
Feb 20
Waning Gibbous
Feb 22
Last Quarter
Mar 1
New
Mar 8
First Quarter
Mar 16
Full

Hourly Weather History & Observations

Time (CST) Temp. Windchill Dew Point Humidity Pressure Visibility Wind Dir Wind Speed Gust Speed Precip Events Conditions
12:15 AM 55.4 °F - 39.2 °F 54% 29.70 in 10.0 mi ESE 4.6 mph - N/A   Overcast
12:35 AM 55.4 °F - 39.2 °F 54% 29.69 in 10.0 mi ESE 8.1 mph - N/A   Mostly Cloudy
12:55 AM 55.4 °F - 39.2 °F 54% 29.67 in 10.0 mi ESE 8.1 mph - N/A   Scattered Clouds
1:15 AM 55.4 °F - 41.0 °F 58% 29.66 in 10.0 mi SE 4.6 mph - N/A   Mostly Cloudy
1:35 AM 55.4 °F - 42.8 °F 63% 29.65 in 10.0 mi SE 6.9 mph - N/A   Overcast
1:55 AM 55.4 °F - 42.8 °F 63% 29.64 in 10.0 mi SE 3.5 mph - N/A   Overcast
2:15 AM 55.4 °F - 44.6 °F 67% 29.63 in 10.0 mi SE 3.5 mph - N/A   Overcast
2:35 AM 60.8 °F - 50.0 °F 68% 29.62 in 10.0 mi South 5.8 mph - N/A   Overcast
2:55 AM 62.6 °F - 53.6 °F 72% 29.60 in 10.0 mi South 11.5 mph 18.4 mph N/A   Overcast
3:15 AM 64.4 °F - 53.6 °F 68% 29.59 in 10.0 mi South 11.5 mph 18.4 mph N/A   Overcast
3:35 AM 62.6 °F - 53.6 °F 72% 29.58 in 10.0 mi South 13.8 mph 19.6 mph N/A   Mostly Cloudy
3:55 AM 62.6 °F - 53.6 °F 72% 29.57 in 10.0 mi South 10.4 mph 20.7 mph N/A   Partly Cloudy
4:15 AM 62.6 °F - 53.6 °F 72% 29.57 in 10.0 mi South 12.7 mph 18.4 mph N/A   Partly Cloudy
4:35 AM 64.4 °F - 53.6 °F 68% 29.57 in 10.0 mi South 12.7 mph 19.6 mph N/A   Scattered Clouds
4:55 AM 64.4 °F - 53.6 °F 68% 29.56 in 10.0 mi South 12.7 mph 21.9 mph N/A   Mostly Cloudy
5:15 AM 64.4 °F - 53.6 °F 68% 29.56 in 10.0 mi South 11.5 mph 21.9 mph N/A   Overcast
5:35 AM 64.4 °F - 53.6 °F 68% 29.56 in 10.0 mi South 15.0 mph 20.7 mph N/A   Overcast
5:55 AM 64.4 °F - 51.8 °F 64% 29.55 in 10.0 mi SSW 11.5 mph 21.9 mph N/A   Overcast
6:15 AM 64.4 °F - 51.8 °F 64% 29.55 in 10.0 mi South 11.5 mph 20.7 mph N/A   Overcast
6:35 AM 64.4 °F - 51.8 °F 64% 29.53 in 10.0 mi South 13.8 mph 23.0 mph N/A   Overcast
6:55 AM 64.4 °F - 51.8 °F 64% 29.53 in 10.0 mi South 12.7 mph 25.3 mph N/A   Overcast
7:15 AM 64.4 °F - 53.6 °F 68% 29.53 in 10.0 mi SSW 16.1 mph 29.9 mph N/A   Overcast
7:35 AM 64.4 °F - 53.6 °F 68% 29.53 in 10.0 mi SSW 10.4 mph 26.5 mph N/A   Overcast
7:55 AM 64.4 °F - 53.6 °F 68% 29.53 in 10.0 mi SSW 15.0 mph 23.0 mph N/A   Overcast
8:15 AM 64.4 °F - 53.6 °F 68% 29.54 in 10.0 mi SSW 12.7 mph 24.2 mph N/A   Overcast
8:35 AM 64.4 °F - 53.6 °F 68% 29.54 in 10.0 mi SSW 11.5 mph 19.6 mph N/A   Overcast
8:55 AM 66.2 °F - 53.6 °F 64% 29.53 in 10.0 mi SSW 13.8 mph 24.2 mph N/A   Overcast
9:15 AM 68.0 °F - 53.6 °F 60% 29.53 in 10.0 mi SSW 15.0 mph 24.2 mph N/A   Overcast
9:35 AM 66.2 °F - 53.6 °F 64% 29.53 in 10.0 mi SW 18.4 mph 26.5 mph N/A   Overcast
9:55 AM 68.0 °F - 53.6 °F 60% 29.52 in 10.0 mi SSW 16.1 mph 29.9 mph N/A   Overcast
10:15 AM 69.8 °F - 53.6 °F 56% 29.52 in 10.0 mi SSW 11.5 mph 26.5 mph N/A   Overcast
10:35 AM 69.8 °F - 53.6 °F 56% 29.52 in 10.0 mi SW 16.1 mph 28.8 mph N/A   Overcast
10:55 AM 71.6 °F - 53.6 °F 53% 29.51 in 10.0 mi SSW 13.8 mph 29.9 mph N/A   Mostly Cloudy
11:15 AM 73.4 °F - 53.6 °F 50% 29.50 in 10.0 mi SW 17.3 mph 29.9 mph N/A   Mostly Cloudy
11:35 AM 73.4 °F - 53.6 °F 50% 29.50 in 10.0 mi SW 24.2 mph 38.0 mph N/A   Scattered Clouds
11:55 AM 73.4 °F - 51.8 °F 47% 29.50 in 10.0 mi SW 17.3 mph 35.7 mph N/A   Mostly Cloudy
12:15 PM 73.4 °F - 51.8 °F 47% 29.50 in 10.0 mi SW 17.3 mph 36.8 mph N/A   Scattered Clouds
12:35 PM 75.2 °F - 50.0 °F 41% 29.49 in 10.0 mi SW 28.8 mph 40.3 mph N/A   Scattered Clouds
12:55 PM 75.2 °F - 48.2 °F 38% 29.49 in 10.0 mi SW 25.3 mph 42.6 mph N/A   Scattered Clouds
1:15 PM 75.2 °F - 46.4 °F 36% 29.49 in 10.0 mi SW 27.6 mph 40.3 mph N/A   Scattered Clouds
1:35 PM 75.2 °F - 42.8 °F 31% 29.48 in 10.0 mi SW 32.2 mph 43.7 mph N/A   Partly Cloudy
1:55 PM 78.8 °F - 33.8 °F 20% 29.48 in 10.0 mi WSW 38.0 mph 48.3 mph N/A   Clear
2:15 PM 75.2 °F - 32.0 °F 21% 29.52 in 10.0 mi West 28.8 mph 48.3 mph N/A   Clear
2:35 PM - - - N/A% 29.55 in 10.0 mi West 28.8 mph 44.9 mph N/A   Clear
2:55 PM - - - N/A% 29.60 in 10.0 mi WNW 32.2 mph 47.2 mph N/A   Clear
3:15 PM - - - N/A% 29.67 in 10.0 mi WNW 33.4 mph 50.6 mph N/A   Clear
3:35 PM 57.2 °F - 33.8 °F 41% 29.71 in 10.0 mi West 23.0 mph 39.1 mph N/A   Clear
3:55 PM 53.6 °F - 32.0 °F 44% 29.75 in 10.0 mi West 23.0 mph 32.2 mph N/A   Scattered Clouds
4:15 PM - - - N/A% 29.77 in 10.0 mi WNW 26.5 mph 34.5 mph N/A   Partly Cloudy
4:35 PM 50.0 °F - 28.4 °F 43% 29.80 in 10.0 mi West 23.0 mph 33.4 mph N/A   Scattered Clouds
4:55 PM 48.2 °F - 28.4 °F 46% 29.82 in 10.0 mi WNW 16.1 mph 29.9 mph N/A   Mostly Cloudy
5:15 PM 48.2 °F - 26.6 °F 43% 29.84 in 10.0 mi WNW 20.7 mph 26.5 mph N/A   Overcast
5:35 PM 46.4 °F 39.5 °F 26.6 °F 46% 29.85 in 10.0 mi WNW 17.3 mph 26.5 mph N/A   Overcast
5:55 PM 46.4 °F 39.5 °F 26.6 °F 46% 29.85 in 10.0 mi WNW 17.3 mph - N/A   Overcast
6:15 PM 46.4 °F 40.7 °F 26.6 °F 46% 29.86 in 10.0 mi West 12.7 mph 17.3 mph N/A   Overcast
6:35 PM 46.4 °F 39.8 °F 26.6 °F 46% 29.87 in 10.0 mi WNW 16.1 mph 19.6 mph N/A   Scattered Clouds
6:55 PM 46.4 °F 41.5 °F 26.6 °F 46% 29.88 in 10.0 mi WNW 10.4 mph - N/A   Clear
7:15 PM 46.4 °F 41.1 °F 24.8 °F 43% 29.89 in 10.0 mi WNW 11.5 mph 23.0 mph N/A   Clear
7:35 PM 44.6 °F 39.7 °F 24.8 °F 46% 29.89 in 10.0 mi WNW 9.2 mph 17.3 mph N/A   Clear
7:55 PM 44.6 °F 40.7 °F 24.8 °F 46% 29.91 in 10.0 mi West 6.9 mph - N/A   Clear
8:15 PM 42.8 °F 40.1 °F 24.8 °F 49% 29.90 in 10.0 mi WSW 4.6 mph - N/A   Clear
8:35 PM 41.0 °F 38.0 °F 23.0 °F 49% 29.90 in 10.0 mi WSW 4.6 mph - N/A   Clear
8:55 PM 39.2 °F 35.9 °F 23.0 °F 52% 29.90 in 10.0 mi WSW 4.6 mph - N/A   Clear
9:15 PM 39.2 °F 34.2 °F 24.8 °F 56% 29.90 in 10.0 mi WSW 6.9 mph - N/A   Clear
9:35 PM 39.2 °F 33.6 °F 24.8 °F 56% 29.90 in 10.0 mi West 8.1 mph - N/A   Clear
9:55 PM 39.2 °F 34.2 °F 24.8 °F 56% 29.89 in 10.0 mi WSW 6.9 mph - N/A   Clear
10:15 PM 37.4 °F 30.8 °F 24.8 °F 60% 29.89 in 10.0 mi WSW 9.2 mph - N/A   Clear
10:35 PM 39.2 °F 32.5 °F 24.8 °F 56% 29.88 in 10.0 mi WSW 10.4 mph - N/A   Clear
10:55 PM 41.0 °F 32.8 °F 24.8 °F 53% 29.89 in 10.0 mi WSW 16.1 mph 20.7 mph N/A   Clear
11:15 PM 42.8 °F 35.8 °F 24.8 °F 49% 29.89 in 10.0 mi WSW 13.8 mph 18.4 mph N/A   Clear
11:35 PM 42.8 °F 35.8 °F 23.0 °F 46% 29.89 in 10.0 mi West 13.8 mph 20.7 mph N/A   Clear
11:55 PM 44.6 °F 37.4 °F 19.4 °F 37% 29.90 in 10.0 mi West 16.1 mph 23.0 mph N/A   Clear